Regional Weather Roundup
Issued by NWS

Home | Current Version | Previous Version | Text Only | Print | Product List | Glossary Off
Versions: 1 2 3 4 5 6 7 8 9 10 11 12 13 14 15 16 17 18 19 20 21 22 23 24 25 26 27 28 29 30 31 32 33 34 35 36 37 38 39 40 41 42 43 44 45 46 47 48 49 50

000
ASUS43 KLSX 250807
RWRMO

WEATHER SUMMARY FOR MISSOURI
NATIONAL WEATHER SERVICE SPRINGFIELD MO
300 AM CDT SUN SEP 25 2016

NOTE: "FAIR" INDICATES FEW OR NO CLOUDS BELOW 12,000 FEET WITH NO
       SIGNIFICANT WEATHER AND/OR OBSTRUCTIONS TO VISIBILITY.
       CURRENT SKY AND/OR WEATHER CONDITIONS ARE NOT AVAILABLE FOR
       CHILLICOTHE AND FARMINGTON.

MOZ001>031-035>038-043-044-053-054-250900-
...NORTHERN AND WESTERN MISSOURI...

CITY           SKY/WX    TMP DP  RH WIND       PRES   REMARKS
KANSAS CTY INT LGT RAIN  68  65  90 SW8       30.02F
KANSAS C DTWN  LGT RAIN  71  67  87 SW6       30.01F
LEE`S SUMMIT   MOCLDY    71  66  84 SW6       30.03F
ST JOSEPH      LGT RAIN  69  67  93 SW5       30.02R
CHILLICOTHE      N/A     71  67  87 CALM      30.02F
KIRKSVILLE     CLOUDY    72  67  84 S8        30.01F

$$
MOZ066>068-077>081-088>096-101>105-250900-
...SOUTHWEST MISSOURI...

CITY           SKY/WX    TMP DP  RH WIND       PRES   REMARKS
SPRINGFIELD    CLOUDY    71  66  84 S3        30.05S
JOPLIN         CLOUDY    69  65  86 E5          N/A
BRANSON        CLOUDY    68  66  94 CALM      30.07F

$$
MOZ032>034-039>042-045>050-055>058-069>072-250900-
...CENTRAL MISSOURI...

CITY           SKY/WX    TMP DP  RH WIND       PRES   REMARKS
COLUMBIA       CLOUDY    72  69  90 S7        30.04S
JEFFERSON CITY MOCLDY    71  68  90 SE5       30.03S
ROLLA          CLEAR     72  66  81 S9        30.06S
SEDALIA        CLOUDY    76  68  76 SW8       30.04R
WHITEMAN AFB   CLOUDY    74  74 100 W8        30.02S
OSAGE BEACH    CLOUDY    71  67  87 S5        30.05S

$$
MOZ051-052-059>065-250900-
...EAST CENTRAL MISSOURI...

CITY           SKY/WX    TMP DP  RH WIND       PRES   REMARKS
ST LOUIS INTL  CLEAR     74  67  78 E6        30.06S
SPIRIT OF STL  CLEAR     69  68  96 CALM      30.04F FOG
ST CHARLES     CLEAR     69  69 100 E6        30.04F

$$
MOZ072>076-082>087-097>100-106>115-250900-
...SOUTH CENTRAL AND SOUTHEAST MISSOURI...

CITY           SKY/WX    TMP DP  RH WIND       PRES   REMARKS
CAPE GIRARDEAU CLEAR     70  68  93 CALM      30.05S
FARMINGTON     CLEAR     66  66 100 CALM      30.08S FOG
WEST PLAINS    CLEAR     67  64  90 CALM      30.09S

$$


USA.gov is the U.S. government's official web portal to all federal, state and local government web resources and services.